GW1546 Weather Reports


Display with metric or nautical units.
time (UTC)temp
F
wind
direction
speed
MPH
gust
MPH
rain 1hr
in
rain 24hr
in
rain mn
in
humidity
%
barometer
mb
20260901213621 89 250 1.0 1.0 0.00 0.00 0.00 71 990.1
20260901213041 90 250 1.0 1.0 0.00 0.00 0.00 72 990.1
20260901212422 89 251 1.0 1.0 0.00 0.00 0.00 71 990.1
20260901211846 89 253 0.0 1.0 0.00 0.00 0.00 70 990.1
20260901211230 88 226 1.0 2.0 0.00 0.00 0.00 71 990.1
20260901210641 87 229 0.0 3.0 0.00 0.00 0.00 74 990.1
20260901210006 89 243 1.0 2.0 0.00 0.00 0.00 72 990.1
20260901205447 89 238 1.0 2.0 0.00 0.00 0.00 74 990.1
20260901204809 90 230 1.0 1.0 0.00 0.00 0.00 72 990.1
20260901204240 90 232 1.0 2.0 0.00 0.00 0.00 71 990.5
20260901203613 90 250 1.0 1.0 0.00 0.00 0.00 71 990.5
20260901203012 88 283 1.0 1.0 0.00 0.00 0.00 71 990.8
20260901202421 87 312 1.0 2.0 0.00 0.00 0.00 75 990.5
20260901201234 90 321 2.0 2.0 0.00 0.00 0.00 73 990.8
20260901200609 90 256 1.0 1.0 0.00 0.00 0.00 71 990.8
20260901200012 91 302 2.0 2.0 0.00 0.00 0.00 70 990.8
20260901195425 91 265 1.0 1.0 0.00 0.00 0.00 67 990.8
20260901194829 92 293 0.0 1.0 0.00 0.00 0.00 71 990.8
20260901194241 93 283 1.0 2.0 0.00 0.00 0.00 62 990.8
20260901193608 94 240 1.0 2.0 0.00 0.00 0.00 59 990.5
20260901193026 94 276 1.0 1.0 0.00 0.00 0.00 62 990.8
20260901192409 94 286 2.0 2.0 0.00 0.00 0.00 62 990.8
20260901191832 92 277 0.0 1.0 0.00 0.00 0.00 63 990.8
20260901191242 92 272 3.0 4.0 0.00 0.00 0.00 62 990.5
20260901190629 93 239 2.0 3.0 0.00 0.00 0.00 61 990.8
20260901190017 92 242 1.0 2.0 0.00 0.00 0.00 61 990.8
20260901185410 92 147 1.0 3.0 0.00 0.00 0.00 63 991.1
20260901184216 89 225 1.0 2.0 0.00 0.00 0.00 74 991.5
20260901183627 86 8 0.0 1.0 0.00 0.00 0.00 81 991.5
20260901181814 90 323 0.0 2.0 0.00 0.00 0.00 67 991.8
20260901181235 89 186 1.0 2.0 0.00 0.00 0.00 71 991.5
20260901180639 89 220 3.0 3.0 0.00 0.00 0.00 75 991.5
20260901180039 90 208 2.0 3.0 0.00 0.00 0.00 65 991.8
20260901175425 90 218 2.0 3.0 0.00 0.00 0.00 69 991.8
20260901174239 90 253 1.0 3.0 0.00 0.00 0.00 68 991.8
20260901171834 90 306 4.0 7.0 0.00 0.00 0.00 67 992.2
20260901171219 91 255 1.0 2.0 0.00 0.00 0.00 66 992.2
20260901170641 91 8 0.0 2.0 0.00 0.00 0.00 69 991.8
20260901170006 89 333 0.0 3.0 0.00 0.00 0.00 68 991.8
20260901165427 89 240 0.0 3.0 0.00 0.00 0.00 71 991.8
20260901164845 88 243 1.0 7.0 0.00 0.00 0.00 70 992.2
20260901164209 88 1 4.0 7.0 0.00 0.00 0.00 71 992.2
20260901163630 88 88 3.0 3.0 0.00 0.00 0.00 70 991.8
20260901162428 88 52 0.0 1.0 0.00 0.00 0.00 77 992.2
20260901161234 90 216 1.0 3.0 0.00 0.00 0.00 69 992.2
20260901160648 91 176 5.0 6.0 0.00 0.00 0.00 67 992.2
20260901160032 88 303 1.0 1.0 0.00 0.00 0.00 73 991.8
20260901155427 88 100 2.0 3.0 0.00 0.00 0.00 73 991.8
20260901154836 90 60 5.0 7.0 0.00 0.00 0.00 72 991.8
20260901154234 89 4 1.0 1.0 0.00 0.00 0.00 73 992.2
20260901153649 90 38 0.0 2.0 0.00 0.00 0.00 77 992.2
20260901153008 89 71 0.0 1.0 0.00 0.00 0.00 78 992.2
20260901151246 86 58 0.0 2.0 0.00 0.00 0.00 80 992.5
20260901150612 85 38 0.0 1.0 0.00 0.00 0.00 81 992.2
20260901150037 85 29 0.0 1.0 0.00 0.00 0.00 80 992.5
20260901145446 85 91 1.0 1.0 0.00 0.00 0.00 81 992.5
20260901144815 82 38 1.0 1.0 0.00 0.00 0.00 85 992.5
20260901144222 82 19 2.0 4.0 0.00 0.00 0.00 85 992.5
20260901143625 82 46 0.0 1.0 0.00 0.00 0.00 84 992.8
20260901143011 81 72 1.0 1.0 0.00 0.00 0.00 87 992.8
20260901142416 80 66 0.0 1.0 0.00 0.00 0.00 88 992.8
20260901141828 78 11 1.0 1.0 0.00 0.00 0.00 90 992.5
20260901141246 77 66 1.0 2.0 0.00 0.00 0.00 92 992.8
20260901140646 76 44 2.0 4.0 0.00 0.00 0.00 93 992.8
20260901140040 76 24 1.0 2.0 0.00 0.00 0.00 94 992.5
20260901135427 75 21 1.0 2.0 0.00 0.00 0.00 94 992.8
20260901134825 75 78 2.0 3.0 0.00 0.00 0.00 94 992.8
20260901134207 75 51 1.0 3.0 0.00 0.00 0.00 95 992.8
20260901133629 74 75 0.0 1.0 0.00 0.00 0.00 96 992.8
20260901133015 74 39 0.0 2.0 0.00 0.00 0.00 96 993.2
20260901132425 73 92 2.0 3.0 0.00 0.00 0.00 96 993.2
20260901131809 73 44 1.0 4.0 0.00 0.00 0.00 97 993.2
20260901131233 73 46 2.0 3.0 0.00 0.00 0.00 97 993.2
20260901130010 72 19 2.0 4.0 0.00 0.00 0.00 99 993.2
20260901124820 72 66 2.0 3.0 0.00 0.00 0.00 99 993.2
20260901124234 72 33 1.0 1.0 0.00 0.00 0.00 99 993.5
20260901123643 72 54 3.0 3.0 0.00 0.00 0.00 99 993.2
20260901123037 72 86 0.0 1.0 0.00 0.00 0.00 99 993.2
20260901121830 71 99 1.0 1.0 0.00 0.00 0.00 99 993.2
20260901121236 71 77 1.0 1.0 0.00 0.00 0.00 99 993.2
20260901120608 71 214 1.0 1.0 0.00 0.00 0.00 99 993.2
20260901120048 71 258 0.0 3.0 0.00 0.00 0.00 99 993.2
20260901115416 71 356 0.0 1.0 0.00 0.00 0.00 99 993.2
20260901114849 71 88 1.0 1.0 0.00 0.00 0.00 99 992.8
20260901113609 70 110 0.0 1.0 0.00 0.00 0.00 99 992.8
20260901113018 70 217 1.0 1.0 0.00 0.00 0.00 99 992.8
20260901112428 70 200 1.0 2.0 0.00 0.00 0.00 99 992.8
20260901111830 70 180 2.0 2.0 0.00 0.00 0.00 99 992.5
20260901111208 70 190 1.0 1.0 0.00 0.00 0.00 99 992.5
20260901110643 70 172 0.0 1.0 0.00 0.00 0.00 99 992.2
20260901110028 70 188 0.0 1.0 0.00 0.00 0.00 99 992.2
20260901105412 70 147 2.0 2.0 0.00 0.00 0.00 99 992.5
20260901104826 70 207 2.0 2.0 0.00 0.00 0.00 99 992.2
20260901104245 70 180 1.0 1.0 0.00 0.00 0.00 99 992.2
20260901103631 70 191 1.0 1.0 0.00 0.00 0.00 99 992.2
20260901102412 69 168 1.0 2.0 0.00 0.00 0.00 99 992.2
20260901101826 70 193 1.0 2.0 0.00 0.00 0.00 99 991.8
20260901101218 69 186 2.0 2.0 0.00 0.00 0.00 99 992.2
20260901100049 70 167 0.0 1.0 0.00 0.00 0.00 99 991.8
20260901095442 69 154 1.0 2.0 0.00 0.00 0.00 99 991.8
20260901094833 69 198 2.0 2.0 0.00 0.00 0.00 99 991.8
20260901094207 69 180 1.0 2.0 0.00 0.00 0.00 99 991.5
20260901093621 69 182 1.0 2.0 0.00 0.00 0.00 99 991.8
20260901091831 69 193 1.0 2.0 0.00 0.00 0.00 99 991.5
20260901091216 69 194 2.0 2.0 0.00 0.00 0.00 99 991.5
20260901090621 70 202 2.0 2.0 0.00 0.00 0.00 99 991.8
20260901085448 70 176 1.0 1.0 0.00 0.00 0.00 99 991.8
20260901084818 70 157 1.0 1.0 0.00 0.00 0.00 99 991.5
20260901084215 69 178 2.0 2.0 0.00 0.00 0.00 99 991.8
20260901083641 69 185 2.0 2.0 0.00 0.00 0.00 99 991.5
20260901083047 70 191 2.0 2.0 0.00 0.00 0.00 99 991.8
20260901081844 69 209 1.0 2.0 0.00 0.00 0.00 99 991.8
20260901081221 69 184 1.0 2.0 0.00 0.00 0.00 99 991.5
20260901080014 70 186 2.0 2.0 0.00 0.00 0.00 99 991.5
20260901074811 70 195 2.0 2.0 0.00 0.00 0.00 99 991.8
20260901074228 70 178 1.0 2.0 0.00 0.00 0.00 99 991.5
20260901073649 70 186 2.0 2.0 0.00 0.00 0.00 99 991.5
20260901073013 70 186 2.0 2.0 0.00 0.00 0.00 99 991.5
20260901071839 70 180 1.0 2.0 0.00 0.00 0.00 99 991.5
20260901071244 70 177 2.0 2.0 0.00 0.00 0.00 99 991.5
20260901070023 70 196 1.0 2.0 0.00 0.00 0.00 99 991.5
20260901065437 70 175 1.0 2.0 0.00 0.00 0.00 99 991.5
20260901064812 70 175 1.0 2.0 0.00 0.00 0.00 99 991.5
20260901064233 70 179 2.0 2.0 0.00 0.00 0.00 99 991.8
20260901063612 70 150 2.0 2.0 0.00 0.00 0.00 99 991.5
20260901063050 70 161 1.0 2.0 0.00 0.00 0.00 99 991.5
20260901062443 70 144 2.0 2.0 0.00 0.00 0.00 99 991.8
20260901061827 70 188 1.0 2.0 0.00 0.00 0.00 99 991.5
20260901060615 71 190 1.0 1.0 0.00 0.00 0.00 99 991.8
20260901055441 71 184 1.0 1.0 0.00 0.00 0.00 99 991.5
20260901054839 71 164 0.0 1.0 0.00 0.00 0.00 99 991.8
20260901054232 71 137 1.0 2.0 0.00 0.00 0.00 99 991.5
20260901053619 71 178 2.0 2.0 0.00 0.00 0.00 99 991.5
20260901053016 71 186 1.0 2.0 0.00 0.00 0.00 99 991.8
20260901052437 71 182 1.0 2.0 0.00 0.00 0.00 99 991.8
20260901051844 71 181 1.0 2.0 0.00 0.00 0.00 99 991.8
20260901051211 72 182 1.0 2.0 0.00 0.00 0.00 99 992.2
20260901050633 72 174 1.0 1.0 0.00 0.00 0.00 99 991.8
20260901050019 72 178 0.0 1.0 0.00 0.00 0.00 99 991.8
20260901045445 72 177 1.0 1.0 0.00 0.00 0.00 99 992.2
20260901044808 72 170 1.0 1.0 0.00 0.00 0.00 99 992.2
20260901044207 72 160 1.0 1.0 0.00 0.00 0.00 99 991.8
20260901043008 72 164 1.0 1.0 0.00 0.00 0.00 99 992.2
20260901042443 72 133 0.0 1.0 0.00 0.00 0.00 99 992.2
20260901041847 72 180 2.0 2.0 0.00 0.00 0.00 99 992.2
20260901035444 72 205 2.0 3.0 0.00 0.00 0.00 99 992.2
20260901034829 72 183 1.0 1.0 0.00 0.00 0.00 99 992.2
20260901034218 73 182 0.0 1.0 0.00 0.00 0.00 99 992.2
20260901033639 73 178 0.0 1.0 0.00 0.00 0.00 99 992.2
20260901033039 73 151 1.0 1.0 0.00 0.00 0.00 99 991.8
20260901032450 73 151 1.0 1.0 0.00 0.00 0.00 99 992.2
20260901031811 73 142 0.0 1.0 0.00 0.00 0.00 99 991.8
20260901031246 73 188 2.0 2.0 0.00 0.00 0.00 99 992.2
20260901030650 74 182 0.0 1.0 0.00 0.00 0.00 99 992.2
20260901030049 73 185 1.0 2.0 0.00 0.00 0.00 99 992.2
20260901025414 73 143 1.0 3.0 0.00 0.00 0.00 99 992.2
20260901024810 74 177 2.0 2.0 0.00 0.00 0.00 99 992.2
20260901024229 74 189 1.0 1.0 0.00 0.00 0.00 99 992.2
20260901023039 74 182 1.0 1.0 0.00 0.00 0.00 99 991.8
20260901022432 74 182 0.0 1.0 0.00 0.00 0.00 99 992.2
20260901021847 74 181 0.0 1.0 0.00 0.00 0.00 99 992.2
20260901021219 74 181 1.0 1.0 0.00 0.00 0.00 99 992.2
20260901020637 74 180 1.0 2.0 0.00 0.00 0.00 99 992.2
20260901020045 74 169 1.0 1.0 0.00 0.00 0.00 99 992.2
20260901014843 74 178 0.0 1.0 0.00 0.00 0.00 99 992.2
20260901014223 74 187 0.0 1.0 0.00 0.00 0.00 99 991.8
20260901013639 75 188 0.0 0.0 0.00 0.00 0.00 99 991.8
20260901013046 75 188 0.0 0.0 0.00 0.00 0.00 99 991.8
20260901012414 75 188 0.0 1.0 0.00 0.00 0.00 99 991.5
20260901011847 75 189 0.0 0.0 0.00 0.00 0.00 99 991.5
20260901011230 75 189 0.0 0.0 0.00 0.00 0.00 99 991.5
20260901010643 75 189 0.0 1.0 0.00 0.00 0.00 99 991.1
20260901010022 75 188 0.0 0.0 0.00 0.00 0.00 99 991.1
20260901005444 75 188 0.0 1.0 0.00 0.00 0.00 99 991.1
20260901004837 75 174 0.0 1.0 0.00 0.00 0.00 99 991.1
20260901004233 75 164 1.0 1.0 0.00 0.00 0.00 99 991.1
20260901003629 75 194 0.0 0.0 0.00 0.00 0.00 99 991.1
20260901003040 75 195 0.0 1.0 0.00 0.00 0.00 99 990.8
20260901002414 76 200 1.0 1.0 0.00 0.00 0.00 99 990.8
20260901001826 76 201 0.0 1.0 0.00 0.00 0.00 98 990.8
20260901000625 76 189 2.0 2.0 0.00 0.00 0.00 98 990.8
20260901000048 77 204 0.0 1.0 0.00 0.00 0.00 98 990.5
20260831235414 77 193 0.0 2.0 0.00 0.00 0.00 97 990.8
20260831233648 78 246 1.0 2.0 0.00 0.00 0.00 95 990.8
20260831233040 78 177 1.0 1.0 0.00 0.00 0.00 95 990.8
20260831232421 78 198 1.0 2.0 0.00 0.00 0.00 94 990.8
20260831231816 79 149 0.0 1.0 0.00 0.00 0.00 93 990.5
20260831230048 80 254 1.0 1.0 0.00 0.00 0.00 92 991.1
20260831225409 80 245 0.0 1.0 0.00 0.00 0.00 91 990.8
20260831224825 81 244 0.0 1.0 0.00 0.00 0.00 91 990.8
20260831224249 81 246 1.0 1.0 0.00 0.00 0.00 89 990.8
20260831223044 82 257 0.0 1.0 0.00 0.00 0.00 86 990.8
20260831222425 83 204 2.0 2.0 0.00 0.00 0.00 85 991.1
20260831221840 84 232 1.0 2.0 0.00 0.00 0.00 83 990.8
20260831221216 86 234 0.0 1.0 0.00 0.00 0.00 79 991.1
20260831214830 88 253 0.0 1.0 0.00 0.00 0.00 76 991.1
20260831214225 88 253 0.0 1.0 0.00 0.00 0.00 75 991.1